Location: Napier
(39.4830°S, 176.9170°E)
Time: 18:15:11
(UTC+13:00)

SPOT 1/Viking Rocket - Pass Details

Date: 24 January 2019
Orbit: 777 x 795 km, 98.5° (Epoch: 22 October)

Event Time Altitude Azimuth Distance (km) Brightness Sun altitude
Rises 23:02:10 0° 159° (SSE) 3,334 7.3 -22.6°
Reaches altitude 10° 23:04:40 10° 151° (SSE) 2,396 6.3 -22.8°
Enters shadow 23:09:16 39° 92° (E) 1,189 4.2 -23.4°
